Regional Weather Roundup
Issued by NWS

Home | Current Version | Previous Version | Text Only | Print | Product List | Glossary On
Versions: 1 2 3 4 5 6 7 8 9 10 11 12 13 14 15 16 17 18 19 20 21 22 23 24 25 26 27 28 29 30 31 32 33 34 35 36 37 38 39 40 41 42 43 44 45 46 47 48 49 50
389
ASUS44 KLIX 220901
RWRLA
LOUISIANA WEATHER ROUNDUP
NATIONAL WEATHER SERVICE NEW ORLEANS LA
300 AM CST SAT NOV 22 2014

NOTE: "FAIR" INDICATES FEW OR NO CLOUDS BELOW 12,000 FEET WITH NO
      SIGNIFICANT WEATHER AND/OR OBSTRUCTIONS TO VISIBILITY.
      SKY/WX - SKY CONDITION AND SIGNIFICANT WEATHER.
      TMP - AIR TEMPERATURE.    DP   - DEWPOINT TEMPERATURE.
      RH  - RELATIVE HUMIDITY.  PRES - PRESSURE.
      HX  - HEAT INDEX.         WCI  - WIND CHILL INDEX.

*  THESE STATIONS ARE NOT NWS OR FAA STATIONS AND ARE NOT UNDER
   NWS QUALITY CONTROL.

LAZ040-048-061>063-065-066-069-221000-
SOUTHEAST LOUISIANA

CITY           SKY/WX    TMP DP  RH WIND       PRES   REMARKS
N.O. AUDUBON   NOT AVBL
N.O. INTL ARPT CLEAR     55  50  83 E6        30.22S
N.O. LAKEFRONT CLEAR     56  52  86 E10       30.23S
N.O. DOWNTOWN* FAIR      57  48  72 NE8       30.23R
SLIDELL        CLEAR     51  46  83 NE5       30.24S
BATON ROUGE    CLEAR     50  48  93 NE5       30.23S
BOOTHVILLE     CLEAR     60  57  89 E5        30.21F
BELLE CHASSE   CLEAR     53  48  83 NE6       30.22S
BOGALUSA*        N/A     44  41  90 CALM      30.26F
NEW ROADS*     NOT AVBL
GONZALES*      NOT AVBL
HAMMOND*       CLEAR     52  46  82 CALM      30.25S
HOUMA*         MOCLDY    51  50  95 CALM      30.20S
PORT FOURCHON* NOT AVBL

$$

LAZ041-044-053-054-221000-
SOUTHWEST LOUISIANA

CITY           SKY/WX    TMP DP  RH WIND       PRES   REMARKS
LAKE CHARLES   CLEAR     55  49  80 E7        30.18F
LAFAYETTE      CLEAR     55  50  83 E5        30.21F
PATTERSON      CLOUDY    55  52  88 NE6       30.23S
SALT POINT       N/A     55  51  86 CALM      30.19S
NEW IBERIA     PTCLDY    54  50  86 E6        30.22S
CHENAULT AIRPK NOT AVBL

$$

LAZ027-028-221000-
CENTRAL LOUISIANA

CITY           SKY/WX    TMP DP  RH WIND       PRES   REMARKS
FORT POLK      NOT AVBL
ALEXANDRIA INT CLOUDY    59  50  72 SE9       30.21R
ALEXANDRIA     CLOUDY    58  51  78 E5        30.22F

$$

LAZ001-002-221000-
NORTHWEST LOUISIANA

CITY           SKY/WX    TMP DP  RH WIND       PRES   REMARKS
SHREVEPORT     CLOUDY    57  53  86 SE12      30.17F
BARKSDALE AFB  NOT AVBL
DTN SHREVEPORT CLOUDY    56  51  84 SE6       30.18F

$$

LAZ014-016-221000-
NORTHEAST LOUISIANA

CITY           SKY/WX    TMP DP  RH WIND       PRES   REMARKS
MONROE         CLOUDY    59  51  75 CALM      30.26S
TALLULAH       MOCLDY    53  48  83 CALM      30.27S

$$




USA.gov is the U.S. government's official web portal to all federal, state and local government web resources and services.